Change the Weather History Date:

Thursday, December 6, 2012

  Actual Average (KPBG) Record (KPBG)
Temperature  
Mean Temperature 27 °F 28 °F  
Max Temperature 32 °F 36 °F 61 °F (1982)
Min Temperature 22 °F 20 °F 5 °F (1969)
Degree Days  
Heating Degree Days 38 37  
Month to date heating degree days 214  
Since 1 July heating degree days 1848  
Cooling Degree Days 0 0  
Month to date cooling degree days 0  
Year to date cooling degree days 346  
Moisture  
Dew Point 16 °F    
Average Humidity 65    
Maximum Humidity 79    
Minimum Humidity 53    
Precipitation  
Precipitation 0.00 in - 1.20 in (1977)
Month to date precipitation  
Year to date precipitation  
Sea Level Pressure  
Sea Level Pressure 30.30 in    
Wind  
Wind Speed 5 mph (West)    
Max Wind Speed 9 mph    
Max Gust Speed 20 mph    
Visibility 10 miles    
Events      
T = Trace of Precipitation, MM = Missing Value Source: NWS Daily Summary

Daily Weather History Graph

Daily Weather History Graph

Search for Another Location

Airport or City:

Trip Planner

Search our weather history database for the weather conditions in past years. The results will help you decide how hot, cold, wet, or windy it might be!

Date:

Astronomy

Dec. 06, 2012 Rise Set
Actual Time 7:16 AM EST 4:11 PM EST
Civil Twilight 6:42 AM EST 4:44 PM EST
Nautical Twilight 6:05 AM EST 5:21 PM EST
Astronomical Twilight 5:30 AM EST 5:56 PM EST
Moon No Moon Rise 11:52 AM EST (12/6)
Length of Visible Light 10h 01m
Length of Day
8h 55m
Waning Gibbous, 49% of the Moon is Illuminated
Dec 6
Waning Gibbous
Dec 13
New
Dec 20
First Quarter
Dec 28
Full
Jan 4
Last Quarter

Hourly Weather History & Observations

Time (EST) Temp. Windchill Dew Point Humidity Pressure Visibility Wind Dir Wind Speed Gust Speed Precip Events Conditions
12:15 AM 27.1 °F 18.2 °F 14.9 °F 60% 30.25 in 10.0 mi NW 9.2 mph - N/A   Overcast
12:35 AM 27.1 °F 19.7 °F 14.9 °F 60% 30.26 in 10.0 mi WNW 6.9 mph 19.6 mph N/A   Overcast
12:55 AM 27.1 °F 20.7 °F 14.9 °F 60% 30.25 in 10.0 mi NW 5.8 mph - N/A   Overcast
1:15 AM 27.1 °F 20.7 °F 15.1 °F 60% 30.25 in 10.0 mi WNW 5.8 mph - N/A   Overcast
1:35 AM 27.1 °F 20.7 °F 15.6 °F 62% 30.26 in 10.0 mi WNW 5.8 mph - N/A   Overcast
1:55 AM 27.1 °F 19.7 °F 15.6 °F 62% 30.27 in 10.0 mi WNW 6.9 mph - N/A   Overcast
2:15 AM 27.1 °F 20.7 °F 15.3 °F 61% 30.28 in 10.0 mi NW 5.8 mph - N/A   Overcast
2:35 AM 27.1 °F 21.8 °F 15.6 °F 62% 30.29 in 10.0 mi NW 4.6 mph - N/A   Overcast
2:55 AM 27.1 °F 18.9 °F 15.8 °F 62% 30.30 in 10.0 mi WNW 8.1 mph - N/A   Overcast
3:15 AM 27.1 °F 19.7 °F 15.6 °F 62% 30.30 in 10.0 mi WNW 6.9 mph - N/A   Overcast
3:35 AM 27.1 °F 20.7 °F 16.0 °F 63% 30.31 in 10.0 mi WNW 5.8 mph - N/A   Overcast
3:55 AM 27.1 °F 20.7 °F 15.8 °F 62% 30.31 in 10.0 mi WNW 5.8 mph - N/A   Overcast
4:15 AM 27.1 °F 20.7 °F 16.5 °F 64% 30.32 in 10.0 mi WNW 5.8 mph - N/A   Overcast
4:35 AM 27.1 °F 23.2 °F 16.3 °F 64% 30.33 in 10.0 mi WNW 3.5 mph - N/A   Overcast
4:55 AM 27.1 °F 21.8 °F 16.2 °F 63% 30.34 in 10.0 mi WNW 4.6 mph - N/A   Overcast
5:15 AM 27.1 °F 21.8 °F 16.5 °F 64% 30.34 in 10.0 mi WNW 4.6 mph - N/A   Overcast
5:35 AM 27.1 °F 18.9 °F 16.3 °F 64% 30.34 in 10.0 mi West 8.1 mph - N/A   Overcast
5:55 AM 27.1 °F 23.2 °F 16.5 °F 64% 30.35 in 10.0 mi West 3.5 mph - N/A   Overcast
6:15 AM 27.1 °F 19.7 °F 16.3 °F 64% 30.35 in 10.0 mi WNW 6.9 mph - N/A   Overcast
6:35 AM 27.1 °F 23.2 °F 16.3 °F 64% 30.37 in 10.0 mi WNW 3.5 mph - N/A   Overcast
6:55 AM 27.1 °F 20.7 °F 16.3 °F 64% 30.38 in 10.0 mi West 5.8 mph - N/A   Overcast
7:35 AM 27.0 °F 19.5 °F 16.7 °F 65% 30.38 in 10.0 mi West 6.9 mph - N/A   Overcast
7:55 AM 25.9 °F 19.2 °F 16.3 °F 67% 30.38 in 10.0 mi West 5.8 mph - N/A   Overcast
8:15 AM 24.6 °F 17.7 °F 15.4 °F 68% 30.40 in 10.0 mi West 5.8 mph - N/A   Overcast
8:55 AM 24.6 °F 18.8 °F 16.3 °F 71% 30.40 in 10.0 mi WNW 4.6 mph - N/A   Overcast
9:15 AM 25.0 °F 19.3 °F 16.5 °F 70% 30.41 in 10.0 mi West 4.6 mph - N/A   Overcast
9:35 AM 27.1 °F 23.2 °F 18.1 °F 69% 30.40 in 10.0 mi WNW 3.5 mph - N/A   Mostly Cloudy
9:55 AM 27.1 °F - 17.4 °F 67% 30.40 in 10.0 mi Calm Calm - N/A   Clear
10:15 AM 27.1 °F 23.2 °F 16.7 °F 65% 30.40 in 10.0 mi NW 3.5 mph - N/A   Clear
10:35 AM 27.1 °F 21.8 °F 16.0 °F 63% 30.40 in 10.0 mi WNW 4.6 mph - N/A   Clear
10:55 AM 27.1 °F 23.2 °F 16.5 °F 64% 30.39 in 10.0 mi West 3.5 mph - N/A   Scattered Clouds
11:15 AM 27.1 °F 21.8 °F 16.3 °F 64% 30.39 in 10.0 mi NW 4.6 mph - N/A   Scattered Clouds
11:35 AM 27.1 °F 21.8 °F 15.8 °F 62% 30.38 in 10.0 mi West 4.6 mph - N/A   Mostly Cloudy
11:55 AM 27.1 °F 23.2 °F 14.9 °F 60% 30.36 in 10.0 mi NW 3.5 mph - N/A   Scattered Clouds
12:15 PM 29.3 °F - 16.0 °F 58% 30.35 in 10.0 mi Calm Calm - N/A   Scattered Clouds
12:35 PM 28.8 °F 23.7 °F 15.6 °F 58% 30.35 in 10.0 mi North 4.6 mph - N/A   Scattered Clouds
12:55 PM 29.7 °F - 15.6 °F 56% 30.34 in 10.0 mi Calm Calm - N/A   Clear
1:15 PM 29.7 °F - 15.4 °F 55% 30.33 in 10.0 mi Calm Calm - N/A   Clear
1:35 PM 29.7 °F - 15.3 °F 55% 30.31 in 10.0 mi Calm Calm - N/A   Clear
1:55 PM 32.0 °F - 17.2 °F 55% 30.31 in 10.0 mi Calm Calm - N/A   Clear
2:15 PM 32.0 °F - 16.9 °F 54% 30.30 in 10.0 mi Calm Calm - N/A   Clear
2:35 PM 32.0 °F - 16.7 °F 53% 30.30 in 10.0 mi Calm Calm - N/A   Clear
2:55 PM 32.0 °F 28.7 °F 17.1 °F 54% 30.30 in 10.0 mi South 3.5 mph - N/A   Clear
3:15 PM 29.8 °F - 15.6 °F 56% 30.30 in 10.0 mi Calm Calm - N/A   Clear
3:35 PM 29.7 °F - 15.8 °F 56% 30.29 in 10.0 mi Calm Calm - N/A   Clear
3:55 PM 29.7 °F - 15.6 °F 56% 30.28 in 10.0 mi Calm Calm - N/A   Clear
4:15 PM 27.5 °F - 14.9 °F 59% 30.28 in 10.0 mi Calm Calm - N/A   Clear
4:35 PM 27.1 °F - 15.8 °F 62% 30.28 in 10.0 mi Calm Calm - N/A   Clear
4:55 PM 27.1 °F - 16.7 °F 65% 30.28 in 10.0 mi Calm Calm - N/A   Clear
5:15 PM 24.8 °F - 16.3 °F 70% 30.27 in 10.0 mi Calm Calm - N/A   Clear
5:35 PM 24.6 °F - 16.7 °F 72% 30.28 in 10.0 mi Calm Calm - N/A   Clear
5:55 PM 24.1 °F - 17.1 °F 75% 30.27 in 10.0 mi Calm Calm - N/A   Clear
6:15 PM 22.6 °F - 16.7 °F 78% 30.27 in 10.0 mi Calm Calm - N/A   Clear
6:35 PM 23.7 °F - 18.0 °F 79% 30.27 in 10.0 mi Calm Calm - N/A   Clear
6:55 PM 24.3 °F - 18.3 °F 78% 30.27 in 10.0 mi Calm Calm - N/A   Clear
7:15 PM 22.1 °F 17.4 °F 16.5 °F 79% 30.25 in 10.0 mi SE 3.5 mph - N/A   Clear
7:35 PM 23.2 °F 17.2 °F 17.1 °F 77% 30.25 in 10.0 mi SE 4.6 mph - N/A   Clear
7:55 PM 22.1 °F 14.7 °F 16.3 °F 79% 30.24 in 10.0 mi SE 5.8 mph - N/A   Clear
8:15 PM 23.9 °F 19.5 °F 18.0 °F 78% 30.24 in 10.0 mi SSE 3.5 mph - N/A   Clear
8:35 PM 24.3 °F 18.4 °F 18.0 °F 77% 30.23 in 10.0 mi SSE 4.6 mph - N/A   Clear
8:55 PM 23.2 °F 17.2 °F 16.3 °F 75% 30.23 in 10.0 mi SE 4.6 mph - N/A   Clear
9:15 PM 24.3 °F 19.9 °F 17.4 °F 75% 30.21 in 10.0 mi SE 3.5 mph - N/A   Clear
9:55 PM 24.8 °F 17.9 °F 18.3 °F 76% 30.20 in 10.0 mi SE 5.8 mph - N/A   Clear
10:15 PM 27.1 °F 21.8 °F 19.4 °F 73% 30.20 in 10.0 mi South 4.6 mph - N/A   Clear
10:35 PM 27.1 °F 20.7 °F 20.1 °F 75% 30.19 in 10.0 mi SSE 5.8 mph - N/A   Clear
10:55 PM 27.3 °F 20.9 °F 18.1 °F 68% 30.18 in 10.0 mi South 5.8 mph - N/A   Clear
11:15 PM 29.7 °F 23.7 °F 17.6 °F 61% 30.17 in 10.0 mi South 5.8 mph - N/A   Scattered Clouds
11:35 PM 30.2 °F 24.3 °F 17.1 °F 58% 30.17 in 10.0 mi South 5.8 mph - N/A   Scattered Clouds
11:55 PM 32.0 °F 26.4 °F 17.8 °F 56% 30.16 in 10.0 mi South 5.8 mph - N/A   Clear